千帆星座-116(QIANFAN-116)

导读 | 豆包AI

QIANFAN-116(NORAD编号68643)是中国“千帆星座”组网卫星序列中的一颗遥感卫星,由中国科学院微小卫星创新研究院参与研制,上海垣信卫星科技有限公司负责运营。 千帆星座是我国商业低轨遥感卫星星座,旨在构建全球高时间分辨率对地观测能力,QIANFAN-116随星座批次组网任务发射,进入太阳同步轨道运行,服务于全球遥感数据获取、应急监测等应用,助力星座完成常态化组网,推动我国商业遥感星座建设与应用发展。

基本信息
目录编号:
68643
目录名称:
QIANFAN-116
国际标识:
2026-075H
轨道中心:
EARTH
卫星名称:
千帆星座-116
卫星全名:
千帆星座-116(QIANFAN-116)
卫星状态:
在轨 (已飞行24 天)
发射日期:
2026-04-07 UTC
国别 :
中国 (CN)
星等 :
--
轨道信息
数据来源 国际轨道数据 AOE轨道数据
星历时间 2026-05-01T20:25:51+0800
7小时前
查看轨道信息
2026-04-28T17:00:00+0800
3天前
查看轨道信息
半长轴 7220.965km 7201.177km
偏心率 0.001483 0.0016687
轨道倾角 88.989° 88.987°
近地点辐角 137.087° 151.481°
升交点赤经 325.958° 326.322°
平近点角 223.148° 20.687°
近地点 832.119km 811.023km
远地点 853.537km 835.057km
周期 101.778分钟 101.360分钟
每日圈数 14.148485 14.206842
详细信息
卫星平台:
116
覆盖范围:
全球
运营商:
上海垣信卫星科技有限公司
运营商所在国:
中国
使用方式:
暂无
卫星简介
千帆星座,也被称为“G60星链”计划,是中国版“星链”的重要组成部分,旨在打造一个由1.4万多颗低轨宽频多媒体卫星构成的庞大星座。千帆星座计划由上海垣信卫星科技有限公司负责实施,于2023年启动建设。该项目是我国第二个低轨卫星大星座,旨在通过构建庞大的卫星网络,为全球用户提供高质量的通信和宽带互联网服务。
2D轨道图
3D轨道图
轨道高度分析图
轨道倾角分析图
轨道综合分析图
查看轨道综合分析图